Home > Weather > Tashkent > Past weeks

Flag for Uzbekistan Weather for the Past 2 Weeks in Tashkent, Uzbekistan

Now
46 °F

Clear.


Feels Like: 44 °F
Forecast: 32 / 44 °F
Wind: 5 mph from Northwest

Location: Tashkent

Current Time: Feb 8, 2016 at 7:35:54 AM

Latest Report: Feb 8, 2016 at 6:00 AM


Visibility: 10 mi

Pressure: 30.01 "Hg

Humidity: 53%

Dew point: 30 °F

Location of TashkentLocation

Historic Weather in Tashkent — Graph

°F

Tashkent Temperature Yesterday

Maximum temperature yesterday: 73 °F (at 3:00 PM)
Minimum temperature yesterday: 30 °F (at 6:00 AM)
Average temperature yesterday: 52 °F

High & Low Weather Summary for the Past Weeks

 TemperatureHumidityPressure
High73 °F (Feb 7, 3:00 PM)100% (Jan 27, 5:30 AM)30.51 "Hg (Jan 27, 5:30 AM)
Low28 °F (Jan 29, 7:00 AM)14% (Feb 7, 2:00 PM)29.77 "Hg (Jan 25, 8:30 PM)
Average41 °F68%30.20 "Hg
* Reported Jan 24 6:00 AM — Feb 8 6:00 AM, Tashkent, Weather by CustomWeather, © 2016

Note: Actual official high and low records may vary slightly from our data, if they occured in-between our weather recording intervals... More about our weather records

Advertising

Tashkent Weather History for the Previous 24 Hours

 ConditionsComfort  
Time TempWeatherWind HumidityBarometerVisibility
6:00 AM
Mon, Feb 8
46 °FClear.5 mph53%30.01 "Hg10 mi
5:30 AM46 °FPassing clouds.3 mph53%29.98 "HgN/A
5:00 AM46 °FPassing clouds.5 mph50%29.98 "HgN/A
4:30 AM45 °FPassing clouds.5 mph53%29.98 "HgN/A
4:00 AM43 °FPassing clouds.3 mph57%29.98 "HgN/A
3:30 AM43 °FPassing clouds.3 mph57%29.95 "HgN/A
3:00 AM43 °FClear.8 mph53%29.95 "Hg10 mi
2:30 AM45 °FClear.5 mph49%29.95 "Hg10 mi
2:00 AM45 °FPassing clouds.5 mph53%29.95 "HgN/A
1:30 AM39 °FClear.7 mph65%29.92 "Hg10 mi
1:00 AM39 °FPassing clouds.3 mph65%29.92 "HgN/A
12:30 AM45 °FPassing clouds.5 mph57%29.92 "HgN/A
12:00 AM46 °FPassing clouds.3 mph50%29.92 "HgN/A
11:30 PM
Sun, Feb 7
48 °FClear.5 mph46%29.92 "Hg10 mi
11:00 PM45 °FClear.7 mph49%29.92 "Hg10 mi
10:30 PM45 °FClear.9 mph49%29.89 "Hg10 mi
10:00 PM48 °FClear.7 mph40%29.89 "Hg10 mi
9:30 PM46 °FClear.9 mph46%29.89 "Hg10 mi
9:00 PM52 °FPassing clouds.5 mph38%29.89 "HgN/A
8:30 PM52 °FClear.8 mph35%29.89 "Hg10 mi
8:00 PM54 °FClear.5 mph33%29.89 "Hg10 mi
7:30 PM54 °FClear.6 mph35%29.89 "Hg10 mi
7:00 PM52 °FClear.7 mph41%29.89 "Hg10 mi
6:30 PM55 °FClear.9 mph36%29.86 "Hg10 mi
6:00 PM61 °FClear.8 mph27%29.86 "Hg10 mi
5:30 PM64 °FClear.5 mph30%29.86 "Hg2 mi
5:00 PM61 °FClear.6 mph48%29.86 "Hg2 mi
4:30 PM64 °FClear.3 mph37%29.89 "Hg3 mi
4:00 PM66 °FSunny.5 mph35%29.89 "Hg10 mi
3:30 PM70 °FSunny.2 mph25%29.89 "Hg10 mi
3:00 PM73 °FSunny.No wind15%29.89 "Hg10 mi
2:30 PM72 °FSunny.1 mph16%29.89 "Hg10 mi
2:00 PM72 °FSunny.No wind14%29.89 "Hg10 mi
1:30 PM70 °FSunny.No wind21%29.89 "Hg10 mi
1:00 PM70 °FSunny.No wind16%29.92 "Hg10 mi
12:30 PM70 °FSunny.1 mph18%29.92 "Hg10 mi
12:00 PM66 °FPassing clouds.3 mph22%29.92 "HgN/A
11:30 AM64 °FPassing clouds.5 mph24%29.92 "HgN/A
11:00 AM61 °FSunny.6 mph27%29.95 "Hg10 mi
10:30 AM59 °FPassing clouds.5 mph25%29.95 "HgN/A
10:00 AM55 °FSunny.6 mph31%29.95 "Hg10 mi
9:30 AM52 °FPassing clouds.7 mph35%29.95 "HgN/A
9:00 AM46 °FSunny.7 mph43%29.95 "Hg10 mi
8:30 AM46 °FSunny.8 mph37%29.95 "Hg10 mi
8:00 AM41 °FSunny.8 mph45%29.95 "Hg10 mi
7:30 AM41 °FPassing clouds.7 mph45%29.92 "HgN/A
7:00 AM39 °FClear.7 mph48%29.92 "Hg10 mi
Weather by CustomWeather, © 2016

See weather overviewHow to use our weather pages